Linden, NJ

5:38 AM EDT on October 24, 2017 (GMT -0400)
Linden

Weather History for KLDJ - January, 2013

Change the Weather History Date:

Thursday, January 31, 2013

  Actual Average (KEWR) Record (KEWR)
Temperature  
Mean Temperature 48 °F -  
Max Temperature 64 °F 39 °F 64 °F (1947)
Min Temperature 31 °F 25 °F 1 °F (1948)
Degree Days  
Heating Degree Days 18    
Moisture  
Dew Point 31 °F    
Average Humidity 58    
Maximum Humidity 89    
Minimum Humidity 35    
Precipitation  
Precipitation 0.71 in - - ()
Sea Level Pressure  
Sea Level Pressure 29.45 in    
Wind  
Wind Speed 19 mph (WSW)    
Max Wind Speed 37 mph    
Max Gust Speed 52 mph    
Visibility 9 miles    
Events Rain , Snow    
Averages and records for this station are not official NWS values.
T = Trace of Precipitation, MM = Missing Value Source: NWS Daily Summary

Daily Weather History Graph

Daily Weather History Graph

Search for Another Location

Airport or City:

Trip Planner

Search our weather history database for the weather conditions in past years. The results will help you decide how hot, cold, wet, or windy it might be!

Date:

Astronomy

Jan. 31, 2013 Rise Set
Actual Time 7:07 AM EST 5:13 PM EST
Civil Twilight 6:38 AM EST 5:42 PM EST
Nautical Twilight 6:05 AM EST 6:15 PM EST
Astronomical Twilight 5:33 AM EST 6:47 PM EST
Moon 10:15 PM EST (1/31) 9:04 AM EST (1/31)
Length of Visible Light 11h 04m
Length of Day
10h 06m
Waning Gibbous, 80% of the Moon is Illuminated
Jan 31
Waning Gibbous
Feb 3
Last Quarter
Feb 10
New
Feb 17
First Quarter
Feb 25
Full

Hourly Weather History & Observations

Time (EST) Temp. Windchill Dew Point Humidity Pressure Visibility Wind Dir Wind Speed Gust Speed Precip Events Conditions
12:15 AM 64.4 °F - 59.0 °F 83% 29.35 in 7.0 mi South 11.5 mph 19.6 mph N/A Rain Light Rain
12:35 AM 63.7 °F - 59.4 °F 86% 29.33 in 5.0 mi South 12.7 mph 21.9 mph 0.02 in Rain Rain
12:55 AM 63.5 °F - 59.9 °F 88% 29.31 in 4.0 mi South 15.0 mph 21.9 mph 0.05 in Rain Light Rain
1:15 AM 63.5 °F - 59.9 °F 88% 29.28 in 5.0 mi South 17.3 mph 25.3 mph 0.03 in Rain Light Rain
1:35 AM 63.5 °F - 59.9 °F 88% 29.25 in 5.0 mi South 15.0 mph 28.8 mph 0.05 in Rain Rain
1:55 AM 63.3 °F - 59.2 °F 86% 29.21 in 5.0 mi South 24.2 mph 33.4 mph 0.07 in Rain Light Rain
2:35 AM 63.3 °F - 59.2 °F 86% 29.15 in 5.0 mi South 19.6 mph 39.1 mph 0.04 in Rain Light Rain
2:55 AM 63.5 °F - 59.5 °F 87% 29.14 in 5.0 mi South 24.2 mph 39.1 mph 0.06 in Rain Light Rain
3:15 AM 63.5 °F - 59.9 °F 88% 29.11 in 4.0 mi South 24.2 mph 35.7 mph 0.03 in Rain Heavy Rain
3:35 AM 63.5 °F - 60.1 °F 89% 29.08 in 2.5 mi South 24.2 mph 40.3 mph 0.12 in Rain Heavy Rain
3:55 AM 63.5 °F - 60.3 °F 89% 29.07 in 3.0 mi South 20.7 mph 36.8 mph 0.20 in Rain Light Rain
4:15 AM 61.7 °F - 58.5 °F 89% 29.13 in 2.0 mi WSW 16.1 mph 36.8 mph 0.19 in Rain Light Rain
4:35 AM 62.6 °F - 58.5 °F 86% 29.13 in 7.0 mi West 12.7 mph 25.3 mph 0.21 in Rain Light Rain
4:55 AM 61.9 °F - 56.3 °F 82% 29.13 in 7.0 mi WSW 15.0 mph 23.0 mph 0.23 in Rain Rain
5:15 AM 61.0 °F - 56.8 °F 86% 29.11 in 5.0 mi South 9.2 mph - 0.03 in Rain Rain
5:35 AM 59.9 °F - 55.4 °F 85% 29.06 in 7.0 mi South 8.1 mph - 0.03 in Rain Light Rain
5:55 AM 59.9 °F - 55.4 °F 85% 29.07 in 10.0 mi SSW 6.9 mph - 0.04 in   Mostly Cloudy
6:15 AM 59.9 °F - 54.5 °F 82% 29.08 in 10.0 mi SSW 9.2 mph 16.1 mph N/A   Scattered Clouds
6:35 AM 59.2 °F - 54.3 °F 84% 29.11 in 4.0 mi West 19.6 mph 31.1 mph 0.05 in Rain Rain
6:55 AM 51.8 °F - 44.1 °F 75% 29.18 in 10.0 mi West 29.9 mph 51.8 mph 0.06 in   Overcast
7:15 AM 49.5 °F - 37.8 °F 64% 29.21 in 10.0 mi West 27.6 mph 40.3 mph N/A Rain Light Rain
7:55 AM 48.4 °F - 34.0 °F 58% 29.24 in 10.0 mi West 23.0 mph 39.1 mph N/A   Mostly Cloudy
8:15 AM 48.6 °F - 32.0 °F 53% 29.27 in 10.0 mi West 31.1 mph 47.2 mph N/A   Mostly Cloudy
8:35 AM 47.5 °F - 31.6 °F 54% 29.30 in 10.0 mi West 32.2 mph 44.9 mph N/A   Mostly Cloudy
9:15 AM 45.5 °F 37.6 °F 29.5 °F 54% 29.35 in 10.0 mi West 20.7 mph 39.1 mph N/A   Mostly Cloudy
9:35 AM 45.7 °F 35.3 °F 28.6 °F 51% 29.36 in 10.0 mi West 36.8 mph 44.9 mph N/A   Mostly Cloudy
9:55 AM 45.7 °F 36.9 °F 27.1 °F 48% 29.38 in 10.0 mi West 25.3 mph 47.2 mph N/A   Scattered Clouds
10:15 AM 46.2 °F 37.1 °F 25.3 °F 44% 29.39 in 10.0 mi West 28.8 mph 46.0 mph N/A   Scattered Clouds
10:35 AM 46.8 °F - 23.9 °F 41% 29.41 in 10.0 mi West 26.5 mph 34.5 mph N/A   Scattered Clouds
10:55 AM 46.6 °F - 23.5 °F 40% 29.42 in 10.0 mi West 26.5 mph 36.8 mph N/A   Clear
11:15 AM - - - N/A% 29.42 in 10.0 mi West 27.6 mph 41.4 mph N/A   Clear
11:35 AM - - - N/A% 29.44 in 10.0 mi West 20.7 mph 34.5 mph N/A   Scattered Clouds
11:55 AM 46.4 °F 37.7 °F 22.5 °F 39% 29.44 in 10.0 mi West 26.5 mph 33.4 mph N/A   Mostly Cloudy
12:15 PM 46.2 °F 37.7 °F 21.6 °F 38% 29.44 in 10.0 mi West 25.3 mph 41.4 mph N/A   Scattered Clouds
12:35 PM - - - N/A% 29.46 in 10.0 mi West 23.0 mph 33.4 mph N/A   Scattered Clouds
12:55 PM 46.6 °F - 21.4 °F 37% 29.45 in 10.0 mi West 26.5 mph 38.0 mph N/A   Scattered Clouds
1:15 PM 46.2 °F 37.9 °F 20.3 °F 36% 29.47 in 10.0 mi West 24.2 mph 42.6 mph N/A   Scattered Clouds
1:35 PM 45.0 °F 36.9 °F 21.9 °F 40% 29.47 in 10.0 mi West 20.7 mph 35.7 mph N/A   Scattered Clouds
1:55 PM 44.8 °F 36.2 °F 20.3 °F 38% 29.49 in 10.0 mi West 23.0 mph 32.2 mph N/A   Scattered Clouds
2:15 PM 44.2 °F 35.2 °F 19.8 °F 38% 29.51 in 10.0 mi West 24.2 mph 35.7 mph N/A   Scattered Clouds
2:35 PM 45.1 °F 36.4 °F 19.9 °F 37% 29.52 in 10.0 mi West 24.2 mph 43.7 mph N/A   Scattered Clouds
2:55 PM 44.2 °F 34.1 °F 18.1 °F 35% 29.52 in 10.0 mi West 31.1 mph 41.4 mph N/A   Clear
3:15 PM 44.1 °F 34.4 °F 17.6 °F 35% 29.54 in 10.0 mi West 27.6 mph 43.7 mph N/A   Clear
3:35 PM 43.0 °F 32.5 °F 17.8 °F 36% 29.54 in 10.0 mi West 29.9 mph 38.0 mph N/A   Clear
4:15 PM 41.2 °F 30.5 °F 18.1 °F 40% 29.58 in 10.0 mi West 27.6 mph 34.5 mph N/A   Scattered Clouds
4:35 PM 40.3 °F 31.0 °F 18.3 °F 41% 29.60 in 10.0 mi West 19.6 mph 34.5 mph N/A   Scattered Clouds
4:55 PM 39.6 °F 29.5 °F 19.4 °F 44% 29.62 in 10.0 mi West 21.9 mph 38.0 mph N/A   Scattered Clouds
5:15 PM 38.1 °F 26.4 °F 23.0 °F 55% 29.64 in 10.0 mi West 27.6 mph 36.8 mph N/A   Mostly Cloudy
5:35 PM 37.0 °F 24.9 °F 15.8 °F 42% 29.66 in 10.0 mi West 27.6 mph 42.6 mph N/A   Scattered Clouds
5:55 PM 36.5 °F 26.0 °F 15.3 °F 42% 29.68 in 10.0 mi West 19.6 mph 35.7 mph N/A   Clear
6:15 PM 36.1 °F 27.3 °F 15.4 °F 43% 29.69 in 10.0 mi West 13.8 mph 24.2 mph N/A   Clear
6:35 PM 36.1 °F 26.9 °F 14.7 °F 42% 29.70 in 10.0 mi West 15.0 mph 23.0 mph N/A   Scattered Clouds
6:55 PM 36.3 °F 26.1 °F 13.6 °F 39% 29.72 in 10.0 mi West 18.4 mph 28.8 mph N/A   Clear
7:15 PM 35.6 °F 25.9 °F 14.4 °F 42% 29.73 in 10.0 mi West 16.1 mph 28.8 mph N/A   Clear
7:35 PM 34.7 °F 23.7 °F 16.3 °F 47% 29.73 in 10.0 mi West 19.6 mph 26.5 mph N/A   Clear
7:55 PM 34.3 °F 24.2 °F 17.6 °F 50% 29.74 in 10.0 mi West 16.1 mph 25.3 mph N/A   Clear
8:15 PM 34.3 °F 23.2 °F 18.7 °F 53% 29.75 in 10.0 mi West 19.6 mph 25.3 mph N/A   Mostly Cloudy
8:35 PM 32.0 °F 21.6 °F 24.3 °F 73% 29.75 in 7.0 mi West 15.0 mph 24.2 mph N/A Snow Light Snow
8:55 PM 32.0 °F 24.8 °F 23.5 °F 71% 29.76 in 10.0 mi West 8.1 mph 11.5 mph N/A   Clear
9:15 PM 32.5 °F 23.2 °F 21.2 °F 63% 29.77 in 10.0 mi West 12.7 mph 18.4 mph N/A   Clear
9:35 PM 32.4 °F 19.7 °F 18.0 °F 55% 29.78 in 10.0 mi West 23.0 mph 33.4 mph N/A   Clear
9:55 PM 32.4 °F 20.0 °F 11.5 °F 42% 29.78 in 10.0 mi West 21.9 mph 28.8 mph N/A   Clear
10:15 PM 32.0 °F 20.8 °F 10.2 °F 40% 29.78 in 10.0 mi West 17.3 mph 28.8 mph N/A   Clear
10:35 PM 32.0 °F 20.5 °F 10.0 °F 40% 29.79 in 10.0 mi West 18.4 mph 31.1 mph N/A   Clear
10:55 PM 32.0 °F 20.1 °F 10.2 °F 40% 29.80 in 10.0 mi West 19.6 mph 26.5 mph N/A   Clear
11:15 PM 32.0 °F 22.1 °F 10.6 °F 41% 29.80 in 10.0 mi West 13.8 mph 28.8 mph N/A   Clear
11:35 PM 31.8 °F 21.4 °F 10.2 °F 41% 29.81 in 10.0 mi West 15.0 mph 23.0 mph N/A   Clear
11:55 PM 31.5 °F 20.9 °F 12.6 °F 46% 29.81 in 10.0 mi West 15.0 mph 19.6 mph N/A   Clear